| time (UTC) | temp F | wind direction | speed MPH | gust MPH | rain 1hr in | rain 24hr in | rain mn in | humidity % | barometer mb |
| 20260504050003 | 46 | 34 | 1.0 | 2.0 | 0.00 | 0.00 | 0.00 | 59 | 966.1 |
| 20260504045504 | 45 | 18 | 1.0 | 2.0 | 0.00 | 0.00 | 0.00 | 59 | 966.1 |
| 20260504045004 | 45 | 45 | 1.0 | 2.0 | 0.00 | 0.00 | 0.00 | 61 | 966.2 |
| 20260504044504 | 45 | 20 | 0.0 | 2.0 | 0.00 | 0.00 | 0.00 | 62 | 966.3 |
| 20260504044004 | 45 | 8 | 1.0 | 2.0 | 0.00 | 0.00 | 0.00 | 58 | 966.3 |
| 20260504043504 | 45 | 25 | 1.0 | 2.0 | 0.00 | 0.00 | 0.00 | 61 | 966.3 |
| 20260504043004 | 45 | 40 | 1.0 | 3.0 | 0.00 | 0.00 | 0.00 | 61 | 966.3 |
| 20260504042503 | 45 | 37 | 0.0 | 2.0 | 0.00 | 0.00 | 0.00 | 61 | 966.3 |
| 20260504042003 | 45 | 347 | 0.0 | 2.0 | 0.00 | 0.00 | 0.00 | 60 | 966.3 |
| 20260504041504 | 46 | 282 | 0.0 | 2.0 | 0.00 | 0.00 | 0.00 | 60 | 966.3 |
| 20260504041004 | 46 | 26 | 1.0 | 3.0 | 0.00 | 0.00 | 0.00 | 59 | 966.3 |
| 20260504040504 | 46 | 350 | 0.0 | 2.0 | 0.00 | 0.00 | 0.00 | 57 | 966.3 |
| 20260504040004 | 46 | 290 | 1.0 | 2.0 | 0.00 | 0.00 | 0.00 | 59 | 966.3 |
| 20260504035504 | 46 | 231 | 1.0 | 2.0 | 0.00 | 0.00 | 0.00 | 57 | 966.4 |
| 20260504035004 | 46 | 21 | 1.0 | 3.0 | 0.00 | 0.00 | 0.00 | 56 | 966.4 |
| 20260504034504 | 46 | 238 | 0.0 | 2.0 | 0.00 | 0.00 | 0.00 | 55 | 966.4 |
| 20260504034004 | 47 | 56 | 1.0 | 3.0 | 0.00 | 0.00 | 0.00 | 55 | 966.5 |
| 20260504033004 | 48 | 31 | 1.0 | 5.0 | 0.00 | 0.00 | 0.00 | 51 | 966.4 |
| 20260504032505 | 48 | 274 | 1.0 | 5.0 | 0.00 | 0.00 | 0.00 | 51 | 966.3 |
| 20260504032004 | 49 | 36 | 1.0 | 6.0 | 0.00 | 0.00 | 0.00 | 50 | 966.3 |
| 20260504031504 | 49 | 317 | 1.0 | 6.0 | 0.00 | 0.00 | 0.00 | 48 | 966.3 |
| 20260504030504 | 49 | 65 | 1.0 | 3.0 | 0.00 | 0.00 | 0.00 | 47 | 966.3 |
| 20260504030004 | 49 | 283 | 1.0 | 3.0 | 0.00 | 0.00 | 0.00 | 47 | 966.2 |
| 20260504025504 | 49 | 352 | 1.0 | 5.0 | 0.00 | 0.00 | 0.00 | 48 | 966.3 |
| 20260504024004 | 50 | 44 | 1.0 | 3.0 | 0.00 | 0.00 | 0.00 | 48 | 966.4 |
| 20260504023504 | 50 | 359 | 1.0 | 3.0 | 0.00 | 0.00 | 0.00 | 47 | 966.4 |
| 20260504023004 | 51 | 336 | 1.0 | 5.0 | 0.00 | 0.00 | 0.00 | 46 | 966.4 |
| 20260504022504 | 51 | 309 | 1.0 | 2.0 | 0.00 | 0.00 | 0.00 | 46 | 966.4 |
| 20260504022004 | 51 | 37 | 1.0 | 3.0 | 0.00 | 0.00 | 0.00 | 46 | 966.3 |
| 20260504021504 | 51 | 345 | 1.0 | 3.0 | 0.00 | 0.00 | 0.00 | 46 | 966.3 |
| 20260504021004 | 51 | 261 | 1.0 | 3.0 | 0.00 | 0.00 | 0.00 | 45 | 966.3 |
| 20260504020004 | 51 | 21 | 1.0 | 3.0 | 0.00 | 0.00 | 0.00 | 47 | 966.1 |
| 20260504015504 | 52 | 224 | 1.0 | 2.0 | 0.00 | 0.00 | 0.00 | 46 | 966.1 |
| 20260504015003 | 52 | 23 | 1.0 | 2.0 | 0.00 | 0.00 | 0.00 | 45 | 966.1 |
| 20260504014503 | 52 | 314 | 0.0 | 2.0 | 0.00 | 0.00 | 0.00 | 44 | 966.1 |
| 20260504014004 | 52 | 242 | 1.0 | 3.0 | 0.00 | 0.00 | 0.00 | 44 | 966.1 |
| 20260504013504 | 52 | 252 | 1.0 | 2.0 | 0.00 | 0.00 | 0.00 | 45 | 966.0 |
| 20260504012504 | 52 | 256 | 1.0 | 3.0 | 0.00 | 0.00 | 0.00 | 44 | 965.9 |
| 20260504012003 | 52 | 307 | 1.0 | 3.0 | 0.00 | 0.00 | 0.00 | 43 | 965.9 |
| 20260504011504 | 52 | 66 | 1.0 | 3.0 | 0.00 | 0.00 | 0.00 | 43 | 965.9 |
| 20260504011004 | 52 | 282 | 1.0 | 2.0 | 0.00 | 0.00 | 0.00 | 43 | 966.0 |
| 20260504010504 | 52 | 281 | 1.0 | 3.0 | 0.00 | 0.00 | 0.00 | 43 | 966.0 |
| 20260504010004 | 52 | 315 | 1.0 | 2.0 | 0.00 | 0.00 | 0.00 | 43 | 966.0 |
| 20260504005004 | 52 | 261 | 1.0 | 2.0 | 0.00 | 0.00 | 0.00 | 43 | 966.0 |
| 20260504004504 | 53 | 306 | 0.0 | 1.0 | 0.00 | 0.00 | 0.00 | 43 | 966.0 |
| 20260504004004 | 53 | 4 | 0.0 | 2.0 | 0.00 | 0.00 | 0.00 | 43 | 966.0 |
| 20260504003504 | 53 | 297 | 1.0 | 2.0 | 0.00 | 0.00 | 0.00 | 42 | 965.9 |
| 20260504003004 | 54 | 291 | 1.0 | 3.0 | 0.00 | 0.00 | 0.00 | 43 | 965.9 |
| 20260504002503 | 54 | 312 | 2.0 | 6.0 | 0.00 | 0.00 | 0.00 | 42 | 965.8 |
| 20260504001503 | 54 | 332 | 3.0 | 6.0 | 0.00 | 0.00 | 0.00 | 42 | 965.8 |
| 20260504001004 | 54 | 328 | 2.0 | 7.0 | 0.00 | 0.00 | 0.00 | 40 | 965.8 |
| 20260504000504 | 55 | 339 | 2.0 | 5.0 | 0.00 | 0.00 | 0.00 | 42 | 965.8 |
| 20260503235504 | 55 | 306 | 3.0 | 5.0 | 0.00 | 0.00 | 0.00 | 40 | 965.7 |
| 20260503235004 | 55 | 298 | 3.0 | 6.0 | 0.00 | 0.00 | 0.00 | 39 | 965.7 |
| 20260503233004 | 57 | 298 | 2.0 | 5.0 | 0.00 | 0.00 | 0.00 | 39 | 965.7 |
| 20260503232503 | 58 | 283 | 2.0 | 7.0 | 0.00 | 0.00 | 0.00 | 39 | 965.7 |
| 20260503232004 | 58 | 287 | 3.0 | 7.0 | 0.00 | 0.00 | 0.00 | 36 | 965.6 |
| 20260503231504 | 58 | 294 | 2.0 | 5.0 | 0.00 | 0.00 | 0.00 | 36 | 965.5 |
| 20260503231004 | 58 | 292 | 3.0 | 6.0 | 0.00 | 0.00 | 0.00 | 37 | 965.5 |
| 20260503230504 | 58 | 267 | 4.0 | 10.0 | 0.00 | 0.00 | 0.00 | 36 | 965.5 |
| 20260503230004 | 59 | 278 | 3.0 | 7.0 | 0.00 | 0.00 | 0.00 | 39 | 965.5 |
| 20260503225004 | 58 | 320 | 3.0 | 6.0 | 0.00 | 0.00 | 0.00 | 36 | 965.4 |
| 20260503224004 | 59 | 301 | 3.0 | 8.0 | 0.00 | 0.00 | 0.00 | 37 | 965.5 |
| 20260503223004 | 59 | 298 | 2.0 | 6.0 | 0.00 | 0.00 | 0.00 | 36 | 965.5 |
| 20260503222504 | 59 | 283 | 3.0 | 7.0 | 0.00 | 0.00 | 0.00 | 36 | 965.5 |
| 20260503222004 | 59 | 279 | 4.0 | 9.0 | 0.00 | 0.00 | 0.00 | 36 | 965.5 |
| 20260503221504 | 59 | 291 | 3.0 | 9.0 | 0.00 | 0.00 | 0.00 | 36 | 965.4 |
| 20260503220504 | 60 | 359 | 3.0 | 6.0 | 0.00 | 0.00 | 0.00 | 35 | 965.3 |
| 20260503220003 | 59 | 268 | 4.0 | 7.0 | 0.00 | 0.00 | 0.00 | 36 | 965.5 |
| 20260503215504 | 59 | 283 | 3.0 | 8.0 | 0.00 | 0.00 | 0.00 | 36 | 965.6 |
| 20260503215003 | 59 | 305 | 3.0 | 8.0 | 0.00 | 0.00 | 0.00 | 36 | 965.6 |
| 20260503214504 | 59 | 278 | 4.0 | 10.0 | 0.00 | 0.00 | 0.00 | 34 | 965.5 |
| 20260503214004 | 59 | 306 | 5.0 | 8.0 | 0.00 | 0.00 | 0.00 | 35 | 965.5 |
| 20260503213504 | 59 | 291 | 5.0 | 10.0 | 0.00 | 0.00 | 0.00 | 36 | 965.4 |
| 20260503213004 | 59 | 358 | 2.0 | 7.0 | 0.00 | 0.00 | 0.00 | 36 | 965.5 |
| 20260503212504 | 59 | 324 | 3.0 | 7.0 | 0.00 | 0.00 | 0.00 | 37 | 965.6 |
| 20260503212004 | 59 | 308 | 3.0 | 7.0 | 0.00 | 0.00 | 0.00 | 36 | 965.5 |
| 20260503211504 | 58 | 297 | 3.0 | 7.0 | 0.00 | 0.00 | 0.00 | 37 | 965.6 |
| 20260503211004 | 58 | 276 | 3.0 | 6.0 | 0.00 | 0.00 | 0.00 | 38 | 966.0 |
| 20260503210504 | 59 | 297 | 3.0 | 7.0 | 0.00 | 0.00 | 0.00 | 35 | 965.9 |
| 20260503210005 | 59 | 329 | 4.0 | 7.0 | 0.00 | 0.00 | 0.00 | 36 | 965.6 |
| 20260503205504 | 60 | 290 | 5.0 | 8.0 | 0.00 | 0.00 | 0.00 | 35 | 965.6 |
| 20260503205004 | 60 | 288 | 3.0 | 8.0 | 0.00 | 0.00 | 0.00 | 37 | 965.6 |
| 20260503204504 | 59 | 313 | 5.0 | 9.0 | 0.00 | 0.00 | 0.00 | 36 | 965.7 |
| 20260503204004 | 58 | 328 | 4.0 | 10.0 | 0.00 | 0.00 | 0.00 | 36 | 965.8 |
| 20260503203504 | 58 | 283 | 3.0 | 8.0 | 0.00 | 0.00 | 0.00 | 36 | 965.7 |
| 20260503202504 | 59 | 309 | 3.0 | 6.0 | 0.00 | 0.00 | 0.00 | 36 | 966.0 |
| 20260503202004 | 58 | 300 | 3.0 | 6.0 | 0.00 | 0.00 | 0.00 | 37 | 965.6 |
| 20260503201503 | 58 | 321 | 3.0 | 8.0 | 0.00 | 0.00 | 0.00 | 37 | 966.0 |
| 20260503200504 | 58 | 307 | 5.0 | 8.0 | 0.00 | 0.00 | 0.00 | 38 | 965.9 |
| 20260503200004 | 58 | 296 | 4.0 | 8.0 | 0.00 | 0.00 | 0.00 | 37 | 965.9 |
| 20260503195504 | 58 | 301 | 5.0 | 13.0 | 0.00 | 0.00 | 0.00 | 37 | 966.0 |
| 20260503194504 | 58 | 24 | 3.0 | 9.0 | 0.00 | 0.00 | 0.00 | 37 | 966.1 |
| 20260503193504 | 58 | 329 | 3.0 | 8.0 | 0.00 | 0.00 | 0.00 | 37 | 966.3 |
| 20260503193004 | 58 | 288 | 3.0 | 8.0 | 0.00 | 0.00 | 0.00 | 36 | 966.4 |
| 20260503192004 | 55 | 273 | 4.0 | 9.0 | 0.00 | 0.00 | 0.00 | 39 | 966.4 |
| 20260503191504 | 56 | 249 | 6.0 | 9.0 | 0.00 | 0.00 | 0.00 | 38 | 967.0 |
| 20260503191004 | 57 | 300 | 5.0 | 9.0 | 0.00 | 0.00 | 0.00 | 38 | 966.8 |
| 20260503190004 | 57 | 314 | 4.0 | 10.0 | 0.00 | 0.00 | 0.00 | 38 | 966.3 |
| 20260503185504 | 57 | 278 | 3.0 | 8.0 | 0.00 | 0.00 | 0.00 | 39 | 966.5 |
| 20260503185004 | 56 | 282 | 4.0 | 8.0 | 0.00 | 0.00 | 0.00 | 39 | 966.7 |
| 20260503184504 | 56 | 301 | 5.0 | 9.0 | 0.00 | 0.00 | 0.00 | 38 | 966.6 |
| 20260503184004 | 56 | 303 | 4.0 | 7.0 | 0.00 | 0.00 | 0.00 | 37 | 966.5 |
| 20260503183504 | 56 | 284 | 5.0 | 9.0 | 0.00 | 0.00 | 0.00 | 39 | 966.6 |
| 20260503182504 | 56 | 299 | 3.0 | 6.0 | 0.00 | 0.00 | 0.00 | 41 | 967.1 |
| 20260503182005 | 56 | 297 | 4.0 | 9.0 | 0.00 | 0.00 | 0.00 | 38 | 966.8 |
| 20260503181004 | 54 | 290 | 5.0 | 13.0 | 0.00 | 0.00 | 0.00 | 40 | 967.1 |
| 20260503180504 | 55 | 0 | 4.0 | 9.0 | 0.00 | 0.00 | 0.00 | 39 | 966.9 |
| 20260503180004 | 56 | 345 | 5.0 | 10.0 | 0.00 | 0.00 | 0.00 | 39 | 966.9 |
| 20260503175504 | 55 | 314 | 3.0 | 7.0 | 0.00 | 0.00 | 0.00 | 42 | 966.7 |
| 20260503175004 | 54 | 295 | 5.0 | 12.0 | 0.00 | 0.00 | 0.00 | 41 | 966.9 |
| 20260503174004 | 54 | 333 | 3.0 | 10.0 | 0.00 | 0.00 | 0.00 | 41 | 967.2 |
| 20260503173504 | 54 | 306 | 3.0 | 9.0 | 0.00 | 0.00 | 0.00 | 41 | 967.2 |
| 20260503173004 | 54 | 276 | 5.0 | 12.0 | 0.00 | 0.00 | 0.00 | 40 | 967.0 |
| 20260503172004 | 53 | 315 | 5.0 | 10.0 | 0.00 | 0.00 | 0.00 | 41 | 967.2 |
| 20260503171504 | 53 | 317 | 3.0 | 8.0 | 0.00 | 0.00 | 0.00 | 42 | 967.1 |
| 20260503171004 | 53 | 261 | 6.0 | 10.0 | 0.00 | 0.00 | 0.00 | 42 | 967.4 |
| 20260503131004 | 43 | 302 | 3.0 | 7.0 | 0.00 | 0.00 | 0.00 | 62 | 968.0 |
| 20260503130504 | 42 | 271 | 2.0 | 6.0 | 0.00 | 0.00 | 0.00 | 63 | 968.0 |
| 20260503110504 | 37 | 280 | 3.0 | 8.0 | 0.00 | 0.00 | 0.00 | 73 | 967.3 |
| 20260503081504 | 38 | 290 | 3.0 | 5.0 | 0.00 | 0.00 | 0.00 | 72 | 966.5 |
| 20260503080504 | 37 | 302 | 2.0 | 6.0 | 0.00 | 0.00 | 0.00 | 73 | 966.6 |
| 20260503072504 | 38 | 303 | 1.0 | 3.0 | 0.00 | 0.00 | 0.00 | 76 | 966.5 |
| 20260503072004 | 38 | 302 | 2.0 | 3.0 | 0.00 | 0.00 | 0.00 | 74 | 966.4 |
| 20260503071503 | 38 | 312 | 2.0 | 3.0 | 0.00 | 0.00 | 0.00 | 74 | 966.4 |
| 20260503071004 | 38 | 305 | 2.0 | 5.0 | 0.00 | 0.00 | 0.00 | 72 | 966.3 |